Tracking 17141 objects as of 7-July-2015
HD Live streaming from Space Station

BREEZE-M DEB

Track BREEZE-M DEB now!
10-day predictions
BREEZE-M DEB is classified as:


NORAD ID: 34259
Int'l Code: 2006-006CA
Perigee: 1,063.9 km
Apogee: 14,780.4 km
Inclination: 51.0 °
Period: 283.4 minutes
Semi major axis: 14293 km
RCS: 0.2413 m2 (medium)
Launch date: February 28, 2006
Source: Commonwealth of Independent States (former USSR) (CIS)

Note: This is SATELLITE DEBRIS
Your satellite tracking list
Your tracking list is empty





NASA's NSSDC Master Catalog

Two Line Element Set (TLE):
1 34259U 06006CA  15187.24370320 -.00000005  00000-0  00000+0 0  9993
2 34259 050.9744 083.2188 4798295 283.5577 029.0274 05.08055411174325

Source of the keplerian elements: AFSPC

N2YO: 310